Home   Weather   Bastia   Past weeks

Flag for France Past Weather in Bastia, Corsica, France — Yesterday and Last 2 Weeks

Now
54 °F

Clear.


Feels Like: 54 °F
Forecast: 53 / 64 °F
Wind: 2 mph from North

Location: Bastia Airport

Current Time: Apr 29, 2017 at 9:40:22 pm

Latest Report: Apr 29, 2017 at 9:00 pm


Visibility: 10 mi

Pressure: 29.95 "Hg

Humidity: 54%

Dew Point: 37 °F

Location of BastiaLocation

Past Weather in Bastia — Graph

°F

Bastia Temperature Yesterday

Maximum temperature yesterday: 66 °F (at 12:00 pm)
Minimum temperature yesterday: 50 °F (at 10:00 pm)
Average temperature yesterday: 58 °F

High & Low Weather Summary for the Past Weeks

 TemperatureHumidityPressure
High73 °F (Apr 16, 12:30 pm)94% (Apr 14, 10:30 pm)30.39 "Hg (Apr 14, 10:30 pm)
Low45 °F (Apr 20, 11:00 pm)18% (Apr 19, 6:30 pm)29.71 "Hg (Apr 18, 4:00 pm)
Average58 °F65%29.99 "Hg
* Reported Apr 14 8:00 pm — Apr 29 8:30 pm, Bastia, Weather by CustomWeather, © 2017

Note: Actual official high and low records may vary slightly from our data, if they occured in-between our weather recording intervals... More about our weather records

Advertising

Bastia Weather History for the Previous 24 Hours

Scroll right to see more
 ConditionsComfort  
Time TempWeatherWind HumidityBarometerVisibility
8:30 pm
Sat, Apr 29
57 °FClear.2 mph48%29.95 "Hg10 mi
8:00 pm61 °FPassing clouds.3 mph42%29.95 "HgN/A
7:30 pm64 °FPassing clouds.2 mph40%29.95 "HgN/A
7:00 pm64 °FPassing clouds.3 mph34%29.95 "HgN/A
6:30 pm64 °FPassing clouds.6 mph34%29.95 "HgN/A
6:00 pm66 °FPassing clouds.6 mph28%29.95 "HgN/A
5:30 pm64 °FPassing clouds.8 mph43%29.95 "HgN/A
5:00 pm64 °FPassing clouds.10 mph43%29.95 "HgN/A
4:30 pm66 °FPassing clouds.9 mph37%29.95 "HgN/A
4:00 pm66 °FPassing clouds.9 mph37%29.98 "HgN/A
3:30 pm66 °FPassing clouds.9 mph35%29.98 "HgN/A
2:30 pm66 °FPassing clouds.8 mph40%29.98 "HgN/A
2:00 pm64 °FPassing clouds.9 mph46%29.98 "HgN/A
1:30 pm64 °FPassing clouds.9 mph43%29.98 "HgN/A
1:00 pm64 °FPassing clouds.8 mph40%29.98 "HgN/A
12:30 pm64 °FPassing clouds.8 mph43%29.98 "HgN/A
12:00 pm64 °FPassing clouds.8 mph40%30.01 "HgN/A
11:30 am64 °FPassing clouds.6 mph43%30.01 "HgN/A
11:00 am63 °FPassing clouds.6 mph45%30.01 "HgN/A
10:30 am63 °FSunny.3 mph42%30.01 "Hg10 mi
9:30 am61 °FSunny.2 mph42%29.98 "Hg10 mi
9:00 am59 °FSunny.3 mph45%29.98 "Hg10 mi
8:30 am55 °FSunny.7 mph51%29.98 "Hg10 mi
8:00 am54 °FSunny.10 mph51%29.95 "Hg10 mi
7:30 am50 °FSunny.8 mph62%29.95 "Hg10 mi
7:00 am48 °FSunny.10 mph62%29.95 "Hg10 mi
6:30 am48 °FSunny.10 mph62%29.95 "Hg10 mi
6:00 am48 °FClear.9 mph62%29.92 "Hg10 mi
5:30 am48 °FClear.8 mph66%29.92 "Hg10 mi
5:00 am48 °FClear.7 mph66%29.92 "Hg10 mi
4:30 am48 °FClear.9 mph66%29.92 "Hg10 mi
4:00 am48 °FPassing clouds.5 mph66%29.92 "HgN/A
3:30 am48 °FClear.7 mph66%29.95 "Hg10 mi
3:00 am48 °FClear.6 mph71%29.92 "Hg10 mi
2:30 am46 °FClear.2 mph76%29.92 "Hg10 mi
2:00 am48 °FClear.1 mph71%29.92 "Hg10 mi
1:30 am50 °FClear.2 mph67%29.92 "Hg10 mi
1:00 am50 °FClear.2 mph67%29.92 "Hg10 mi
12:30 am50 °FClear.3 mph71%29.92 "Hg10 mi
12:00 am50 °FClear.2 mph71%29.92 "Hg10 mi
11:30 pm
Fri, Apr 28
52 °FPassing clouds.6 mph67%29.92 "HgN/A
11:00 pm50 °FPassing clouds.3 mph71%29.89 "HgN/A
10:30 pm50 °FClear.2 mph71%29.89 "Hg10 mi
10:00 pm50 °FClear.5 mph71%29.89 "Hg10 mi
9:00 pm55 °FPassing clouds.2 mph59%29.89 "HgN/A
Weather by CustomWeather, © 2017

See weather overviewHow to use our weather pages